Time,TemperatureF,DewpointF,PressureIn,WindDirection,WindDirectionDegrees,WindSpeedMPH,WindSpeedGustMPH,Humidity,HourlyPrecipIn,Conditions,Clouds,dailyrainin,SoftwareType,DateUTC
2013-01-28 00:12:00,70.1,-35.0,30.20,ENE,78,7.0,-999.0,1,-99.99,,,0.00,weatherlink.com 1.10,2013-01-28 05:12:00,
2013-01-28 00:27:00,70.1,-99.9,30.20,East,82,4.0,-999.0,0,-99.99,,,0.00,weatherlink.com 1.10,2013-01-28 05:27:00,
2013-01-28 00:43:00,70.3,-99.9,30.20,ENE,59,6.0,-999.0,0,-99.99,,,0.00,weatherlink.com 1.10,2013-01-28 05:43:00,
2013-01-28 01:12:00,70.1,-99.9,30.20,East,84,7.0,-999.0,0,-99.99,,,0.00,weatherlink.com 1.10,2013-01-28 06:12:00,
2013-01-28 01:28:00,69.9,-99.9,30.20,NE,55,6.0,-999.0,0,-99.99,,,0.00,weatherlink.com 1.10,2013-01-28 06:28:00,
2013-01-28 01:43:00,69.9,-99.9,30.20,ENE,75,4.0,-999.0,0,-99.99,,,0.00,weatherlink.com 1.10,2013-01-28 06:43:00,
2013-01-28 01:58:00,69.8,-36.0,30.20,East,98,4.0,-999.0,1,-99.99,,,0.00,weatherlink.com 1.10,2013-01-28 06:58:00,
2013-01-28 02:13:00,69.9,-36.0,30.20,East,85,3.0,-999.0,1,-99.99,,,0.00,weatherlink.com 1.10,2013-01-28 07:13:00,
2013-01-28 02:28:00,69.9,-36.0,30.20,ENE,77,10.0,-999.0,1,-99.99,,,0.00,weatherlink.com 1.10,2013-01-28 07:28:00,
2013-01-28 02:43:00,69.9,-99.9,30.20,East,87,3.0,-999.0,0,-99.99,,,0.00,weatherlink.com 1.10,2013-01-28 07:43:00,
2013-01-28 02:58:00,69.8,-36.0,30.20,NE,37,12.0,-999.0,1,-99.99,,,0.00,weatherlink.com 1.10,2013-01-28 07:58:00,
2013-01-28 03:13:00,69.9,-99.9,30.20,East,98,10.0,-999.0,0,-99.99,,,0.00,weatherlink.com 1.10,2013-01-28 08:13:00,
2013-01-28 03:28:00,69.9,-99.9,30.20,East,95,3.0,-999.0,0,-99.99,,,0.00,weatherlink.com 1.10,2013-01-28 08:28:00,
2013-01-28 03:43:00,69.9,-99.9,30.20,East,86,5.0,-999.0,0,-99.99,,,0.00,weatherlink.com 1.10,2013-01-28 08:43:00,
2013-01-28 03:58:00,69.9,-99.9,30.20,ESE,110,4.0,-999.0,0,-99.99,,,0.00,weatherlink.com 1.10,2013-01-28 08:58:00,
2013-01-28 04:14:00,69.8,-36.0,30.19,East,84,4.0,-999.0,1,-99.99,,,0.00,weatherlink.com 1.10,2013-01-28 09:14:00,
2013-01-28 04:29:00,69.6,-36.0,30.19,East,89,5.0,-999.0,1,-99.99,,,0.00,weatherlink.com 1.10,2013-01-28 09:29:00,
2013-01-28 04:43:00,69.6,-36.0,30.19,ENE,73,4.0,-999.0,1,-99.99,,,0.00,weatherlink.com 1.10,2013-01-28 09:43:00,
2013-01-28 05:14:00,69.8,-36.0,30.20,North,356,3.0,-999.0,1,-99.99,,,0.00,weatherlink.com 1.10,2013-01-28 10:14:00,
2013-01-28 05:29:00,69.8,-36.0,30.20,East,79,3.0,-999.0,1,-99.99,,,0.00,weatherlink.com 1.10,2013-01-28 10:29:00,
2013-01-28 05:44:00,69.9,-99.9,30.20,ENE,67,1.0,-999.0,0,-99.99,,,0.00,weatherlink.com 1.10,2013-01-28 10:44:00,
2013-01-28 05:59:00,69.9,-36.0,30.20,East,82,4.0,-999.0,1,-99.99,,,0.00,weatherlink.com 1.10,2013-01-28 10:59:00,
2013-01-28 06:14:00,69.8,-99.9,30.20,ENE,72,3.0,-999.0,0,-99.99,,,0.00,weatherlink.com 1.10,2013-01-28 11:14:00,
2013-01-28 06:29:00,69.9,-36.0,30.21,East,94,4.0,-999.0,1,-99.99,,,0.00,weatherlink.com 1.10,2013-01-28 11:29:00,
2013-01-28 06:44:00,69.9,-99.9,30.22,ENE,78,1.0,-999.0,0,-99.99,,,0.00,weatherlink.com 1.10,2013-01-28 11:44:00,
2013-01-28 06:59:00,70.3,-99.9,30.22,East,94,3.0,-999.0,0,-99.99,,,0.00,weatherlink.com 1.10,2013-01-28 11:59:00,
2013-01-28 07:14:00,70.1,-35.0,30.22,ENE,66,0.0,-999.0,1,-99.99,,,0.00,weatherlink.com 1.10,2013-01-28 12:14:00,
2013-01-28 07:30:00,70.3,-35.0,30.22,East,79,3.0,-999.0,1,-99.99,,,0.00,weatherlink.com 1.10,2013-01-28 12:30:00,
2013-01-28 07:45:00,70.6,-99.9,30.23,East,82,2.0,-999.0,0,-99.99,,,0.00,weatherlink.com 1.10,2013-01-28 12:45:00,
2013-01-28 07:59:00,70.9,-99.9,30.23,ENE,65,4.0,-999.0,0,-99.99,,,0.00,weatherlink.com 1.10,2013-01-28 12:59:00,
2013-01-28 08:15:00,70.9,-99.9,30.23,East,96,2.0,-999.0,0,-99.99,,,0.00,weatherlink.com 1.10,2013-01-28 13:15:00,
2013-01-28 08:30:00,70.9,-99.9,30.24,ENE,74,0.0,-999.0,0,-99.99,,,0.00,weatherlink.com 1.10,2013-01-28 13:30:00,
2013-01-28 08:45:00,71.3,-99.9,30.24,East,86,4.0,-999.0,0,-99.99,,,0.00,weatherlink.com 1.10,2013-01-28 13:45:00,
2013-01-28 09:00:00,71.6,-99.9,30.24,ESE,112,2.0,-999.0,0,-99.99,,,0.00,weatherlink.com 1.10,2013-01-28 14:00:00,
2013-01-28 09:15:00,72.0,-99.9,30.25,ENE,75,3.0,-999.0,-999,-99.99,,,0.00,weatherlink.com 1.10,2013-01-28 14:15:00,
2013-01-28 09:30:00,72.7,-99.9,30.25,East,86,3.0,-999.0,-999,-99.99,,,0.00,weatherlink.com 1.10,2013-01-28 14:30:00,
2013-01-28 09:45:00,72.7,-99.9,30.25,SE,133,3.0,-999.0,-999,-99.99,,,0.00,weatherlink.com 1.10,2013-01-28 14:45:00,
2013-01-28 10:00:00,73.0,-99.9,30.26,ENE,75,5.0,-999.0,-999,-99.99,,,0.00,weatherlink.com 1.10,2013-01-28 15:00:00,
2013-01-28 10:15:00,73.0,-99.9,30.26,ENE,77,3.0,-999.0,-999,-99.99,,,0.00,weatherlink.com 1.10,2013-01-28 15:15:00,
2013-01-28 10:30:00,73.0,-99.9,30.26,East,94,5.0,-999.0,-999,-99.99,,,0.00,weatherlink.com 1.10,2013-01-28 15:30:00,
2013-01-28 10:45:00,73.5,-99.9,30.27,ENE,63,4.0,-999.0,-999,-99.99,,,0.00,weatherlink.com 1.10,2013-01-28 15:45:00,
2013-01-28 11:00:00,73.9,-99.9,30.27,ESE,123,5.0,-999.0,0,-99.99,,,0.00,weatherlink.com 1.10,2013-01-28 16:00:00,
2013-01-28 11:16:00,73.9,-99.9,30.27,East,80,4.0,-999.0,0,-99.99,,,0.00,weatherlink.com 1.10,2013-01-28 16:16:00,
2013-01-28 12:01:00,73.3,-99.9,30.26,East,90,4.0,-999.0,-999,-99.99,,,0.00,weatherlink.com 1.10,2013-01-28 17:01:00,
2013-01-28 12:16:00,73.2,-99.9,30.25,East,89,3.0,-999.0,-999,-99.99,,,0.00,weatherlink.com 1.10,2013-01-28 17:16:00,
2013-01-28 12:31:00,72.8,-99.9,30.24,East,93,4.0,-999.0,-999,-99.99,,,0.00,weatherlink.com 1.10,2013-01-28 17:31:00,
2013-01-28 12:46:00,72.7,-99.9,30.23,East,98,1.0,-999.0,0,-99.99,,,0.00,weatherlink.com 1.10,2013-01-28 17:46:00,
2013-01-28 13:01:00,71.1,-14.0,30.23,South,174,0.0,-999.0,3,-99.99,,,0.00,weatherlink.com 1.10,2013-01-28 18:01:00,
2013-01-28 13:16:00,70.4,-9.0,30.22,SSW,208,0.0,-999.0,4,-99.99,,,0.00,weatherlink.com 1.10,2013-01-28 18:16:00,
2013-01-28 13:31:00,69.9,-4.0,30.22,SSW,208,1.0,-999.0,5,-99.99,,,0.00,weatherlink.com 1.10,2013-01-28 18:31:00,
2013-01-28 13:46:00,69.8,-5.0,30.20,SSW,208,0.0,-999.0,5,-99.99,,,0.00,weatherlink.com 1.10,2013-01-28 18:46:00,
2013-01-28 14:02:00,69.9,-4.0,30.20,SSW,208,0.0,-999.0,5,-99.99,,,0.00,weatherlink.com 1.10,2013-01-28 19:02:00,
2013-01-28 14:16:00,69.9,-4.0,30.20,SSW,208,0.0,-999.0,5,-99.99,,,0.00,weatherlink.com 1.10,2013-01-28 19:16:00,
2013-01-28 14:32:00,69.8,-1.0,30.19,East,89,1.0,-999.0,6,-99.99,,,0.00,weatherlink.com 1.10,2013-01-28 19:32:00,
2013-01-28 14:46:00,70.3,0.0,30.19,ESE,103,3.0,-999.0,6,-99.99,,,0.00,weatherlink.com 1.10,2013-01-28 19:46:00,
2013-01-28 15:02:00,70.8,-4.0,30.19,East,84,0.0,-999.0,5,-99.99,,,0.00,weatherlink.com 1.10,2013-01-28 20:02:00,
2013-01-28 15:17:00,71.1,-8.0,30.18,ESE,102,1.0,-999.0,4,-99.99,,,0.00,weatherlink.com 1.10,2013-01-28 20:17:00,
2013-01-28 15:32:00,71.3,-14.0,30.18,East,89,4.0,-999.0,3,-99.99,,,0.00,weatherlink.com 1.10,2013-01-28 20:32:00,
2013-01-28 15:47:00,71.3,-8.0,30.17,East,81,3.0,-999.0,4,-99.99,,,0.00,weatherlink.com 1.10,2013-01-28 20:47:00,
2013-01-28 16:17:00,72.3,-21.0,30.17,East,86,4.0,-999.0,2,-99.99,,,0.00,weatherlink.com 1.10,2013-01-28 21:17:00,
2013-01-28 16:32:00,71.8,-14.0,30.17,ENE,77,2.0,-999.0,3,-99.99,,,0.00,weatherlink.com 1.10,2013-01-28 21:32:00,
2013-01-28 16:47:00,71.8,-8.0,30.17,ENE,70,1.0,-999.0,4,-99.99,,,0.00,weatherlink.com 1.10,2013-01-28 21:47:00,
2013-01-28 17:18:00,71.6,-8.0,30.17,ENE,78,0.0,-999.0,4,-99.99,,,0.00,weatherlink.com 1.10,2013-01-28 22:18:00,
2013-01-28 17:33:00,70.9,-8.0,30.18,ENE,76,1.0,-999.0,4,-99.99,,,0.00,weatherlink.com 1.10,2013-01-28 22:33:00,
2013-01-28 18:02:00,70.4,-4.0,30.19,SE,143,2.0,-999.0,5,-99.99,,,0.00,weatherlink.com 1.10,2013-01-28 23:02:00,
2013-01-28 18:17:00,70.3,0.0,30.19,East,86,2.0,-999.0,6,-99.99,,,0.00,weatherlink.com 1.10,2013-01-28 23:17:00,
2013-01-28 18:48:00,69.9,3.0,30.19,East,86,0.0,-999.0,7,-99.99,,,0.00,weatherlink.com 1.10,2013-01-28 23:48:00,
2013-01-28 19:03:00,69.6,3.0,30.19,East,86,2.0,-999.0,7,-99.99,,,0.00,weatherlink.com 1.10,2013-01-29 00:03:00,
2013-01-28 19:18:00,69.6,3.0,30.19,East,79,0.0,-999.0,7,-99.99,,,0.00,weatherlink.com 1.10,2013-01-29 00:18:00,
2013-01-28 19:33:00,69.6,3.0,30.19,ENE,66,0.0,-999.0,7,-99.99,,,0.00,weatherlink.com 1.10,2013-01-29 00:33:00,
2013-01-28 20:03:00,69.4,5.0,30.19,ENE,75,2.0,-999.0,8,-99.99,,,0.00,weatherlink.com 1.10,2013-01-29 01:03:00,
2013-01-28 20:33:00,69.3,5.0,30.19,East,98,4.0,-999.0,8,-99.99,,,0.00,weatherlink.com 1.10,2013-01-29 01:33:00,
2013-01-28 20:48:00,69.1,5.0,30.20,East,85,1.0,-999.0,8,-99.99,,,0.00,weatherlink.com 1.10,2013-01-29 01:48:00,
2013-01-28 21:03:00,69.3,8.0,30.20,East,85,1.0,-999.0,9,-99.99,,,0.00,weatherlink.com 1.10,2013-01-29 02:03:00,
2013-01-28 21:19:00,69.3,8.0,30.20,ENE,75,0.0,-999.0,9,-99.99,,,0.00,weatherlink.com 1.10,2013-01-29 02:19:00,
2013-01-28 21:33:00,69.6,8.0,30.20,East,87,0.0,-999.0,9,-99.99,,,0.00,weatherlink.com 1.10,2013-01-29 02:33:00,
2013-01-28 21:49:00,69.8,8.0,30.20,East,91,0.0,-999.0,9,-99.99,,,0.00,weatherlink.com 1.10,2013-01-29 02:49:00,
2013-01-28 22:19:00,69.4,8.0,30.20,NE,38,0.0,-999.0,9,-99.99,,,0.00,weatherlink.com 1.10,2013-01-29 03:19:00,
2013-01-28 22:34:00,69.4,8.0,30.20,East,81,2.0,-999.0,9,-99.99,,,0.00,weatherlink.com 1.10,2013-01-29 03:34:00,
2013-01-28 22:49:00,69.4,8.0,30.19,East,93,0.0,-999.0,9,-99.99,,,0.00,weatherlink.com 1.10,2013-01-29 03:49:00,
2013-01-28 23:04:00,69.3,8.0,30.19,East,91,0.0,-999.0,9,-99.99,,,0.00,weatherlink.com 1.10,2013-01-29 04:04:00,
2013-01-28 23:19:00,69.1,10.0,30.19,East,84,0.0,-999.0,10,-99.99,,,0.00,weatherlink.com 1.10,2013-01-29 04:19:00,
2013-01-28 23:34:00,69.1,10.0,30.19,East,85,0.0,-999.0,10,-99.99,,,0.00,weatherlink.com 1.10,2013-01-29 04:34:00,
2013-01-28 23:49:00,69.3,10.0,30.19,ENE,65,0.0,-999.0,10,-99.99,,,0.00,weatherlink.com 1.10,2013-01-29 04:49:00,